Regional Weather Roundup
Issued by NWS

Home | Current Version | Previous Version | Graphics & Text | Print | Product List | Glossary On
Versions: 1 2 3 4 5 6 7 8 9 10 11 12 13 14 15 16 17 18 19 20 21 22 23 24 25 26 27 28 29 30 31 32 33 34 35 36 37 38 39 40 41 42 43 44 45 46 47 48 49 50
000
ASUS43 KMKX 241211
RWRWI

WISCONSIN REGIONAL WEATHER ROUNDUP
NATIONAL WEATHER SERVICE MILWAUKEE/SULLIVAN WI
700 AM CDT THU APR 24 2014

NOTE: "FAIR" INDICATES FEW OR NO CLOUDS BELOW 12,000 FEET WITH NO
SIGNIFICANT WEATHER AND/OR OBSTRUCTIONS TO VISIBILITY.

WIZ001-002-006>008-014>016-023>028-241300-
NORTHWEST WISCONSIN

CITY           SKY/WX    TMP DP  RH WIND       PRES   REMARKS
SUPERIOR ARPT  CLOUDY    34  34  98 NE7       29.96F WCI  28
6HR MIN TEMP:  33; 6HR MAX TEMP:  35; 6HR PCP:  0.03;

ASHLAND        CLOUDY    36  35  96 NE5       30.00F WCI  32
6HR MIN TEMP:  36; 6HR MAX TEMP:  39; 6HR PCP:  0.22;

HAYWARD        LGT RAIN  35  32  88 E13G18    29.95S FOG     WCI  26
6HR MIN TEMP:  35; 6HR MAX TEMP:  37; 6HR PCP:  0.07;

SIREN          CLOUDY    38  37  95 SE13G21   29.89S FOG     WCI  30
6HR MIN TEMP:  38; 6HR MAX TEMP:  40; 6HR PCP:  0.03;

RICE LAKE      LGT RAIN  37  35  94 E12G20    29.91F WCI  29
6HR MIN TEMP:  37; 6HR MAX TEMP:  39; 6HR PCP:  0.02;

LADYSMITH      CLOUDY    37  31  79 E9        29.97F WCI  30
6HR MIN TEMP:  36; 6HR MAX TEMP:  38; 6HR PCP:  0.07;

EAU CLAIRE     RAIN      38  36  92 E15       29.89F WCI  29
6HR MIN TEMP:  38; 6HR MAX TEMP:  41; 6HR PCP:  0.16;

MENOMONIE      LGT RAIN  38  37  97 E14       29.89F WCI  29
6HR MIN TEMP:  37; 6HR MAX TEMP:  42; 6HR PCP:  0.02;

NEW RICHMOND   LGT RAIN  38  38  98 E15G21    29.85S WCI  30
6HR MIN TEMP:  38; 6HR MAX TEMP:  42; 6HR PCP:  0.04;

OSCEOLA        LGT SNOW  39  39  98 E16       29.87F WCI  31
6HR MIN TEMP:  39; 6HR MAX TEMP:  42;

$$

WIZ003>005-009-010-017-018-241300-
NORTH CENTRAL WISCONSIN

CITY           SKY/WX    TMP DP  RH WIND       PRES   REMARKS
WOODRUFF       CLOUDY    37  34  91 SE5       29.99F WCI  33
6HR MIN TEMP:  34; 6HR MAX TEMP:  42; 6HR PCP:  0.07;

RHINELANDER    CLOUDY    33  31  92 E9        30.01S WCI  25
6HR MIN TEMP:  32; 6HR MAX TEMP:  40; 6HR PCP:  0.04;

EAGLE RIVER    CLOUDY    34  29  83 E8        30.01F WCI  27
6HR MIN TEMP:  33; 6HR MAX TEMP:  40;

LAND O LAKES   FLURRIES  36  32  85 SE8       30.03S WCI  29
6HR MIN TEMP:  36; 6HR MAX TEMP:  41;

PHILLIPS       CLOUDY    34  31  89 E9        29.97F WCI  26
6HR MIN TEMP:  33; 6HR MAX TEMP:  37; 6HR PCP:  0.11;

TOMAHAWK       CLOUDY    33  30  90 CALM      29.99F
6HR MIN TEMP:  32; 6HR MAX TEMP:  35; 6HR PCP:  0.10;

MEDFORD        CLOUDY    36  25  64 SE7       29.97R WCI  30
6HR MIN TEMP:  36; 6HR MAX TEMP:  38;

MERRILL        CLOUDY    38  24  57 E7        29.99S WCI  32
6HR MIN TEMP:  33; 6HR MAX TEMP:  38; 6HR PCP:  0.01;

$$

WIZ029-030-035-036-043>047-241300-
CENTRAL WISCONSIN

CITY           SKY/WX    TMP DP  RH WIND       PRES   REMARKS
WAUSAU         CLOUDY    39  19  44 SE9       29.98F WCI  33
6HR MIN TEMP:  39; 6HR MAX TEMP:  40; 6HR PCP: TRACE;

MOSINEE        CLOUDY    37  23  56 SE8       30.00F WCI  31
MARSHFIELD     LGT RAIN  36  32  85 E13       29.96F WCI  27
6HR MIN TEMP:  34; 6HR MAX TEMP:  38; 6HR PCP:  0.01;

STEVENS POINT  LGT RAIN  35  29  80 SE7       30.01R WCI  29
6HR MIN TEMP:  34; 6HR MAX TEMP:  40;

WAUPACA        DRIZZLE   39  28  65 E5        30.02F
WAUTOMA        LGT RAIN  37  35  92 E8        30.00F FOG     WCI  31
6HR MIN TEMP:  35; 6HR MAX TEMP:  39; 6HR PCP:  0.07;

WISC RAPIDS    LGT RAIN  36  33  89 E9        29.98F WCI  29
6HR MIN TEMP:  34; 6HR MAX TEMP:  37; 6HR PCP:  0.12;

CAMP DOUGLAS   LGT RAIN  37  37 100 E13       29.94F WCI  29
                                      6HR PCP:  0.32;

$$

WIZ011>013-019>022-031-037>040-048>050-241300-
NORTHEAST WISCONSIN

CITY           SKY/WX    TMP DP  RH WIND       PRES   REMARKS
ANTIGO         CLOUDY    36  20  51 E14       30.00F WCI  27
6HR MIN TEMP:  35; 6HR MAX TEMP:  38;

STURGEON BAY   CLOUDY    37  23  56 E12       30.07F WCI  30
6HR MIN TEMP:  37; 6HR MAX TEMP:  39;

GREEN BAY      CLOUDY    41  26  55 E5        30.05F
6HR MIN TEMP:  40; 6HR MAX TEMP:  42;

MANITOWOC      CLOUDY    39  31  72 E6        30.06F WCI  35
6HR MIN TEMP:  38; 6HR MAX TEMP:  42;

APPLETON       LGT RAIN  39  25  56 E6        30.03F WCI  35
CLINTONVILLE   CLOUDY    41  23  48 E5        30.03S
OSHKOSH        CLOUDY    42  32  67 SE7       30.02S
6HR MIN TEMP:  39; 6HR MAX TEMP:  42; 6HR PCP: TRACE;

$$

WIZ032>034-041-042-053>061-241300-
SOUTHWEST WISCONSIN

CITY           SKY/WX    TMP DP  RH WIND       PRES   REMARKS
LA CROSSE      RAIN      40  36  86 SE8       29.90S WCI  34
6HR MIN TEMP:  40; 6HR MAX TEMP:  43; 6HR PCP:  0.31;

SPARTA         RAIN      37  37  97 E8        29.93R WCI  31
6HR MIN TEMP:  37; 6HR MAX TEMP:  41; 6HR PCP:  0.30;

VIROQUA        CLOUDY    36  36  99 E14       29.89R WCI  27
6HR MIN TEMP:  36; 6HR MAX TEMP:  39; 6HR PCP:  0.32;

BOSCOBEL       LGT RAIN  40  35  83 NE6       29.91S
6HR MIN TEMP:  40; 6HR MAX TEMP:  45; 6HR PCP:  0.05;

PRAIRIE DU CHI CLOUDY    42  35  74 E9G16     29.86R
6HR MIN TEMP:  40; 6HR MAX TEMP:  44; 6HR PCP:  0.15;

PLATTEVILLE    CLOUDY    41  34  77 E15G22    29.89R
6HR MIN TEMP:  39; 6HR MAX TEMP:  42;

$$

WIZ056-057-062-063-064-067-068-241300-
SOUTH CENTRAL WISCONSIN

CITY           SKY/WX    TMP DP  RH WIND       PRES   REMARKS
BARABOO/DELLS  CLOUDY    36  34  91 E9        29.94F WCI  29
6HR MIN TEMP:  35; 6HR MAX TEMP:  37; 6HR PCP:  0.13;

LONE ROCK      CLOUDY    40  35  83 E15       29.92F WCI  32
6HR MIN TEMP:  38; 6HR MAX TEMP:  41; 6HR PCP:  0.04;

WATERTOWN      CLOUDY    38  34  85 E10       29.98F WCI  31
6HR MIN TEMP:  34; 6HR MAX TEMP:  38; 6HR PCP:  0.13;

MADISON        CLOUDY    40  35  83 SE13      29.97F WCI  32
6HR MIN TEMP:  35; 6HR MAX TEMP:  40; 6HR PCP:  0.08;

MIDDLETON      CLOUDY    41  36  80 E12       29.95S
6HR MIN TEMP:  38; 6HR MAX TEMP:  41; 6HR PCP:  0.01;

MONROE         CLOUDY    40  38  91 E13G20    29.92F WCI  33
6HR MIN TEMP:  37; 6HR MAX TEMP:  40;

JANESVILLE     CLOUDY    43  32  65 E12G17    29.95F
$$

WIZ051-052-058>065-066-070>072-241300-
SOUTHEAST WISCONSIN

CITY           SKY/WX    TMP DP  RH WIND       PRES   REMARKS
MILWAUKEE      CLOUDY    37  32  82 NE8       30.05F WCI  31
6HR MIN TEMP:  37; 6HR MAX TEMP:  39; 6HR PCP:  0.04;

WAUKESHA       CLOUDY    36  34  93 E9        30.03F WCI  29
MILWAUKEE/TIMM DRIZZLE   36  32  87 E5        30.06R WCI  32
RACINE         CLOUDY    39  33  79 E8        30.05F WCI  33
6HR MIN TEMP:  36; 6HR MAX TEMP:  39; 6HR PCP:  0.11;

BURLINGTON     CLOUDY    39  32  77 E10       30.00F WCI  32
6HR MIN TEMP:  34; 6HR MAX TEMP:  39;

KENOSHA        CLOUDY    39  34  82 E12       30.03F WCI  32
6HR MIN TEMP:  36; 6HR MAX TEMP:  39; 6HR PCP:  0.04;

FOND DU LAC    LGT RAIN  40  33  76 SE10      30.02S WCI  33
6HR MIN TEMP:  38; 6HR MAX TEMP:  41; 6HR PCP:  0.03;

SHEBOYGAN      CLOUDY    42  31  64 E6        30.05F
6HR MIN TEMP:  38; 6HR MAX TEMP:  42; 6HR PCP: TRACE;

WEST BEND      RAIN      36  32  87 E5        30.04S WCI  32
JUNEAU         CLOUDY    37  33  84 E13       30.00F WCI  29
6HR MIN TEMP:  34; 6HR MAX TEMP:  37; 6HR PCP:  0.16;

$$

LSZ147-162-241300-
LAKE SUPERIOR

STATION/POSITION TIME  TEMP    WIND        PRES    WAVE
                       AIR SEA DIR/SP/G            HT/PER
                 (UTC) (F)     (DEG/KT/KT) (MB)    (FT/S)
DEVILS ISLAND    1200   35     100/  7/  8 1017.6F
PORT WING        1140   39     120/  6/ 12 1015.2F
SAXON HARBOR     1100           CALM  /  3 1016.3F
$$

LMZ867-665-643>646-241300-
LAKE MICHIGAN

STATION/POSITION TIME  TEMP    WIND        PRES    WAVE
                       AIR SEA DIR/SP/G            HT/PER
                 (UTC) (F)     (DEG/KT/KT) (MB)    (FT/S)
NORTHPORT PIER   1100   35     100/  9/ 10 1019.3F
SISTER BAY       1138   38     150/  8/ 11   N/A
KEWAUNEE LAKESHO 1100   37      40/  5/  7 1019.1F
SHEBOYGAN LAKESH 1200   40     120/  9/ 10 1018.3F
PORT WASHINGTON  1140   37      70/  6/  7 1018.3F
MILWAUKEE LAKESH 1100   36      50/ 11/ 12   N/A
KENOSHA   LAKESH 1200   39      80/ 15/ 17   N/A
$$

TC  - TEMPERATURE IN CELSIUS
VSB - VISIBILITY IN STATUTE MILES
WCI - WIND CHILL INDEX
HX  - HEAT INDEX




USA.gov is the U.S. government's official web portal to all federal, state and local government web resources and services.